Time,TemperatureF,DewpointF,PressureIn,WindDirection,WindDirectionDegrees,WindSpeedMPH,WindSpeedGustMPH,Humidity,HourlyPrecipIn,Conditions,Clouds,dailyrainin,SoftwareType,DateUTC
2013-06-20 00:00:00,81.0,74.2,29.90,SE,135,0.0,-999.0,80,-99.99,,,0.00,Acu-Link.com,2013-06-20 04:00:00,
2013-06-20 00:15:00,80.6,74.2,29.89,SE,135,1.7,-999.0,81,-99.99,,,0.00,Acu-Link.com,2013-06-20 04:15:00,
2013-06-20 00:30:00,80.6,74.2,29.90,SE,135,0.0,-999.0,81,-99.99,,,0.00,Acu-Link.com,2013-06-20 04:30:00,
2013-06-20 00:46:00,80.8,74.8,29.89,South,180,0.0,-999.0,82,-99.99,,,0.00,Acu-Link.com,2013-06-20 04:46:00,
2013-06-20 01:01:00,80.6,74.9,29.90,South,180,1.1,-999.0,83,-99.99,,,0.00,Acu-Link.com,2013-06-20 05:01:00,
2013-06-20 01:16:00,80.2,74.9,29.90,South,180,0.0,-999.0,84,-99.99,,,0.00,Acu-Link.com,2013-06-20 05:16:00,
2013-06-20 01:31:00,79.7,75.5,29.89,West,270,0.0,-999.0,87,-99.99,,,0.00,Acu-Link.com,2013-06-20 05:31:00,
2013-06-20 01:47:00,79.3,75.4,29.89,West,270,0.0,-999.0,88,-99.99,,,0.00,Acu-Link.com,2013-06-20 05:47:00,
2013-06-20 02:02:00,79.0,75.5,29.89,NNW,337,2.7,-999.0,89,-99.99,,,0.00,Acu-Link.com,2013-06-20 06:02:00,
2013-06-20 02:17:00,78.6,75.1,29.89,WNW,292,0.0,-999.0,89,-99.99,,,0.00,Acu-Link.com,2013-06-20 06:17:00,
2013-06-20 02:32:00,78.6,75.1,29.89,WSW,247,7.8,-999.0,89,-99.99,,,0.00,Acu-Link.com,2013-06-20 06:32:00,
2013-06-20 02:48:00,78.6,74.4,29.89,SW,225,4.7,-999.0,87,-99.99,,,0.00,Acu-Link.com,2013-06-20 06:48:00,
2013-06-20 03:03:00,78.6,74.4,29.88,SSW,202,1.7,-999.0,87,-99.99,,,0.00,Acu-Link.com,2013-06-20 07:03:00,
2013-06-20 03:18:00,78.1,73.6,29.90,South,180,3.7,-999.0,86,-99.99,,,0.00,Acu-Link.com,2013-06-20 07:18:00,
2013-06-20 03:33:00,75.9,72.1,29.90,SSE,157,5.3,-999.0,88,-99.99,,,0.00,Acu-Link.com,2013-06-20 07:33:00,
2013-06-20 03:48:00,75.4,71.3,29.88,South,180,4.7,-999.0,87,-99.99,,,0.00,Acu-Link.com,2013-06-20 07:48:00,
2013-06-20 04:03:00,74.8,67.5,29.87,SSW,202,3.7,-999.0,78,-99.99,,,0.00,Acu-Link.com,2013-06-20 08:03:00,
2013-06-20 04:35:00,74.8,67.5,29.88,SSE,157,0.0,-999.0,78,-99.99,,,0.00,Acu-Link.com,2013-06-20 08:35:00,
2013-06-20 04:50:00,73.8,67.2,29.88,SSW,202,0.0,-999.0,80,-99.99,,,0.00,Acu-Link.com,2013-06-20 08:50:00,
2013-06-20 05:05:00,73.0,68.2,29.88,South,180,0.0,-999.0,85,-99.99,,,0.00,Acu-Link.com,2013-06-20 09:05:00,
2013-06-20 05:21:00,73.4,69.3,29.88,ESE,112,2.7,-999.0,87,-99.99,,,0.00,Acu-Link.com,2013-06-20 09:21:00,
2013-06-20 05:36:00,73.4,69.6,29.89,ESE,112,0.0,-999.0,88,-99.99,,,0.00,Acu-Link.com,2013-06-20 09:36:00,
2013-06-20 05:51:00,73.2,69.8,29.90,ESE,112,0.0,-999.0,89,-99.99,,,0.00,Acu-Link.com,2013-06-20 09:51:00,
2013-06-20 06:06:00,73.0,69.9,29.90,ESE,112,0.0,-999.0,90,-99.99,,,0.00,Acu-Link.com,2013-06-20 10:06:00,
2013-06-20 06:21:00,72.9,69.8,29.90,West,270,1.7,-999.0,90,-99.99,,,0.00,Acu-Link.com,2013-06-20 10:21:00,
2013-06-20 06:36:00,73.8,70.7,29.90,NE,45,4.2,-999.0,90,-99.99,,,0.00,Acu-Link.com,2013-06-20 10:36:00,
2013-06-20 06:52:00,73.4,70.3,29.89,ENE,67,0.0,-999.0,90,-99.99,,,0.00,Acu-Link.com,2013-06-20 10:52:00,
2013-06-20 07:07:00,73.8,70.7,29.91,ENE,67,3.2,-999.0,90,-99.99,,,0.00,Acu-Link.com,2013-06-20 11:07:00,
2013-06-20 07:22:00,74.5,71.0,29.90,ENE,67,0.0,-999.0,89,-99.99,,,0.00,Acu-Link.com,2013-06-20 11:22:00,
2013-06-20 07:37:00,75.2,71.4,29.90,ENE,67,0.0,-999.0,88,-99.99,,,0.00,Acu-Link.com,2013-06-20 11:37:00,
2013-06-20 07:54:00,76.1,71.6,29.90,South,180,1.7,-999.0,86,-99.99,,,0.00,Acu-Link.com,2013-06-20 11:54:00,
2013-06-20 08:09:00,79.2,72.9,29.91,South,180,3.7,-999.0,81,-99.99,,,0.00,Acu-Link.com,2013-06-20 12:09:00,
2013-06-20 08:24:00,81.5,73.6,29.91,SSW,202,4.2,-999.0,77,-99.99,,,0.00,Acu-Link.com,2013-06-20 12:24:00,
2013-06-20 08:40:00,83.8,73.8,29.91,SSE,157,3.7,-999.0,72,-99.99,,,0.00,Acu-Link.com,2013-06-20 12:40:00,
2013-06-20 08:55:00,85.5,74.6,29.91,SSW,202,3.7,-999.0,70,-99.99,,,0.00,Acu-Link.com,2013-06-20 12:55:00,
2013-06-20 09:10:00,85.6,74.7,29.92,SSW,202,6.3,-999.0,70,-99.99,,,0.00,Acu-Link.com,2013-06-20 13:10:00,
2013-06-20 09:25:00,88.3,75.5,29.91,South,180,4.7,-999.0,66,-99.99,,,0.00,Acu-Link.com,2013-06-20 13:25:00,
2013-06-20 09:40:00,87.6,74.8,29.92,South,180,6.8,-999.0,66,-99.99,,,0.00,Acu-Link.com,2013-06-20 13:40:00,
2013-06-20 09:55:00,86.7,74.0,29.92,South,180,6.3,-999.0,66,-99.99,,,0.00,Acu-Link.com,2013-06-20 13:55:00,
2013-06-20 10:10:00,87.6,74.3,29.92,SSW,202,2.7,-999.0,65,-99.99,,,0.00,Acu-Link.com,2013-06-20 14:10:00,
2013-06-20 10:26:00,89.2,74.9,29.92,SSW,202,3.7,-999.0,63,-99.99,,,0.00,Acu-Link.com,2013-06-20 14:26:00,
2013-06-20 10:41:00,89.6,73.3,29.92,SE,135,7.3,-999.0,59,-99.99,,,0.00,Acu-Link.com,2013-06-20 14:41:00,
2013-06-20 10:56:00,89.2,73.5,29.92,SSE,157,4.7,-999.0,60,-99.99,,,0.00,Acu-Link.com,2013-06-20 14:56:00,
2013-06-20 11:11:00,90.1,73.8,29.92,East,90,4.2,-999.0,59,-99.99,,,0.00,Acu-Link.com,2013-06-20 15:11:00,
2013-06-20 11:27:00,90.5,73.7,29.92,SE,135,6.3,-999.0,58,-99.99,,,0.00,Acu-Link.com,2013-06-20 15:27:00,
2013-06-20 11:42:00,91.0,74.1,29.93,SSE,157,3.2,-999.0,58,-99.99,,,0.00,Acu-Link.com,2013-06-20 15:42:00,
2013-06-20 11:57:00,92.5,73.4,29.91,ESE,112,6.3,-999.0,54,-99.99,,,0.00,Acu-Link.com,2013-06-20 15:57:00,
2013-06-20 12:12:00,92.3,73.2,29.91,South,180,4.7,-999.0,54,-99.99,,,0.00,Acu-Link.com,2013-06-20 16:12:00,
2013-06-20 12:27:00,93.0,72.7,29.92,South,180,5.3,-999.0,52,-99.99,,,0.00,Acu-Link.com,2013-06-20 16:27:00,
2013-06-20 12:42:00,91.9,73.4,29.92,ESE,112,5.8,-999.0,55,-99.99,,,0.00,Acu-Link.com,2013-06-20 16:42:00,
2013-06-20 12:57:00,92.1,73.6,29.92,ESE,112,8.3,-999.0,55,-99.99,,,0.00,Acu-Link.com,2013-06-20 16:57:00,
2013-06-20 13:12:00,92.1,73.0,29.91,ESE,112,5.8,-999.0,54,-99.99,,,0.00,Acu-Link.com,2013-06-20 17:12:00,
2013-06-20 13:28:00,92.1,73.0,29.91,SE,135,9.9,-999.0,54,-99.99,,,0.00,Acu-Link.com,2013-06-20 17:28:00,
2013-06-20 13:43:00,91.6,72.6,29.91,ESE,112,8.9,-999.0,54,-99.99,,,0.00,Acu-Link.com,2013-06-20 17:43:00,
2013-06-20 13:58:00,92.7,71.9,29.90,ESE,112,6.3,-999.0,51,-99.99,,,0.00,Acu-Link.com,2013-06-20 17:58:00,
2013-06-20 14:13:00,91.6,71.4,29.90,ESE,112,5.8,-999.0,52,-99.99,,,0.00,Acu-Link.com,2013-06-20 18:13:00,
2013-06-20 14:28:00,91.6,73.6,29.90,SE,135,9.4,-999.0,56,-99.99,,,0.00,Acu-Link.com,2013-06-20 18:28:00,
2013-06-20 14:43:00,91.2,73.3,29.90,ESE,112,7.3,-999.0,56,-99.99,,,0.00,Acu-Link.com,2013-06-20 18:43:00,
2013-06-20 14:58:00,91.8,73.3,29.89,South,180,9.9,-999.0,55,-99.99,,,0.00,Acu-Link.com,2013-06-20 18:58:00,
2013-06-20 15:13:00,90.7,72.8,29.89,South,180,11.4,-999.0,56,-99.99,,,0.00,Acu-Link.com,2013-06-20 19:13:00,
2013-06-20 15:28:00,90.0,73.2,29.88,ESE,112,7.3,-999.0,58,-99.99,,,0.00,Acu-Link.com,2013-06-20 19:28:00,
2013-06-20 15:44:00,89.8,74.0,29.88,ESE,112,3.7,-999.0,60,-99.99,,,0.00,Acu-Link.com,2013-06-20 19:44:00,
2013-06-20 15:59:00,90.0,74.2,29.87,ESE,112,11.4,-999.0,60,-99.99,,,0.00,Acu-Link.com,2013-06-20 19:59:00,
2013-06-20 16:14:00,90.0,74.2,29.87,ESE,112,5.8,-999.0,60,-99.99,,,0.00,Acu-Link.com,2013-06-20 20:14:00,
2013-06-20 16:29:00,89.1,74.3,29.88,SSE,157,8.9,-999.0,62,-99.99,,,0.00,Acu-Link.com,2013-06-20 20:29:00,
2013-06-20 16:44:00,89.2,74.0,29.88,SE,135,9.4,-999.0,61,-99.99,,,0.00,Acu-Link.com,2013-06-20 20:44:00,
2013-06-20 16:59:00,89.6,73.8,29.87,ESE,112,8.9,-999.0,60,-99.99,,,0.00,Acu-Link.com,2013-06-20 20:59:00,
2013-06-20 17:14:00,88.5,74.3,29.87,SSE,157,6.3,-999.0,63,-99.99,,,0.00,Acu-Link.com,2013-06-20 21:14:00,
2013-06-20 17:29:00,87.1,73.9,29.89,SE,135,6.3,-999.0,65,-99.99,,,0.00,Acu-Link.com,2013-06-20 21:29:00,
2013-06-20 17:44:00,86.0,73.3,29.88,ESE,112,4.7,-999.0,66,-99.99,,,0.00,Acu-Link.com,2013-06-20 21:44:00,
2013-06-20 18:00:00,86.0,72.8,29.91,SW,225,4.2,-999.0,65,-99.99,,,0.00,Acu-Link.com,2013-06-20 22:00:00,
2013-06-20 18:15:00,78.3,69.7,29.93,West,270,8.9,-999.0,75,-99.99,,,0.00,Acu-Link.com,2013-06-20 22:15:00,
2013-06-20 18:30:00,77.5,69.7,29.93,WNW,292,9.4,-999.0,77,-99.99,,,0.00,Acu-Link.com,2013-06-20 22:30:00,
2013-06-20 18:45:00,77.7,70.3,29.93,NW,315,6.8,-999.0,78,-99.99,,,0.00,Acu-Link.com,2013-06-20 22:45:00,
2013-06-20 19:00:00,78.3,70.9,29.92,NNE,22,4.2,-999.0,78,-99.99,,,0.00,Acu-Link.com,2013-06-20 23:00:00,
2013-06-20 19:15:00,79.5,70.9,29.91,West,270,0.0,-999.0,75,-99.99,,,0.00,Acu-Link.com,2013-06-20 23:15:00,
2013-06-20 19:30:00,79.5,70.9,29.91,East,90,2.7,-999.0,75,-99.99,,,0.00,Acu-Link.com,2013-06-20 23:30:00,
2013-06-20 19:45:00,79.5,70.9,29.92,ESE,112,5.8,-999.0,75,-99.99,,,0.00,Acu-Link.com,2013-06-20 23:45:00,
2013-06-20 20:00:00,79.3,71.1,29.92,ESE,112,2.7,-999.0,76,-99.99,,,0.00,Acu-Link.com,2013-06-21 00:00:00,
2013-06-20 20:16:00,79.2,71.3,29.92,ESE,112,0.0,-999.0,77,-99.99,,,0.00,Acu-Link.com,2013-06-21 00:16:00,
2013-06-20 20:31:00,79.2,71.3,29.92,East,90,2.7,-999.0,77,-99.99,,,0.00,Acu-Link.com,2013-06-21 00:31:00,
2013-06-20 20:46:00,79.2,71.7,29.91,ESE,112,4.2,-999.0,78,-99.99,,,0.00,Acu-Link.com,2013-06-21 00:46:00,
2013-06-20 21:01:00,79.3,71.8,29.92,ESE,112,1.7,-999.0,78,-99.99,,,0.00,Acu-Link.com,2013-06-21 01:01:00,
2013-06-20 21:16:00,79.3,71.8,29.91,ESE,112,2.7,-999.0,78,-99.99,,,0.00,Acu-Link.com,2013-06-21 01:16:00,
2013-06-20 21:31:00,79.3,71.8,29.91,ESE,112,0.0,-999.0,78,-99.99,,,0.00,Acu-Link.com,2013-06-21 01:31:00,
2013-06-20 21:46:00,79.3,71.8,29.93,ESE,112,0.0,-999.0,78,-99.99,,,0.00,Acu-Link.com,2013-06-21 01:46:00,
2013-06-20 22:01:00,79.3,71.8,29.93,SSE,157,0.0,-999.0,78,-99.99,,,0.00,Acu-Link.com,2013-06-21 02:01:00,
2013-06-20 22:16:00,79.0,71.9,29.93,SE,135,0.0,-999.0,79,-99.99,,,0.00,Acu-Link.com,2013-06-21 02:16:00,
2013-06-20 22:32:00,78.6,71.9,29.93,SE,135,0.0,-999.0,80,-99.99,,,0.00,Acu-Link.com,2013-06-21 02:32:00,
2013-06-20 22:47:00,78.4,72.4,29.94,SE,135,0.0,-999.0,82,-99.99,,,0.00,Acu-Link.com,2013-06-21 02:47:00,
2013-06-20 23:02:00,78.3,72.7,29.94,SE,135,0.0,-999.0,83,-99.99,,,0.00,Acu-Link.com,2013-06-21 03:02:00,
2013-06-20 23:17:00,78.6,73.3,29.94,SSE,157,0.0,-999.0,84,-99.99,,,0.00,Acu-Link.com,2013-06-21 03:17:00,
2013-06-20 23:32:00,78.3,73.4,29.94,SSE,157,0.0,-999.0,85,-99.99,,,0.00,Acu-Link.com,2013-06-21 03:32:00,
2013-06-20 23:47:00,78.3,73.8,29.94,SSE,157,0.0,-999.0,86,-99.99,,,0.00,Acu-Link.com,2013-06-21 03:47:00,